Flag for Austria Weather past 2 weeks in Enns, Upper Austria, Austria

Now
71 °F

Sunny.


Feels Like: 73 °F
Forecast: 64 / 89 °F
Wind: N/A

Location: Linz / Hoersching-Flughafen

Current Time: Aug 4, 2015 at 9:47:03 AM

Latest Report: Aug 4, 2015 at 9:00 AM


Visibility: 7 mi

Pressure: 29.97 "Hg

Humidity: 74%

Dew point: 62 °F

Location of EnnsLocation

Historic Weather in Enns — Graph

°F

Enns temperature yesterday

Maximum temperature yesterday: 82 °F (at 7:00 PM)
Minimum temperature yesterday: 59 °F (at 3:00 AM)
Average temperature yesterday: 69 °F

Past Weeks' High & Low Weather Summary

 TemperatureHumidityPressure
High97 °F (Jul 22, 3:00 PM)100% (Aug 3, 3:00 AM)30.15 "Hg (Aug 3, 3:00 AM)
Low54 °F (Jul 31, 6:00 AM)21% (Jul 22, 3:00 PM)29.66 "Hg (Jul 25, 3:00 AM)
Average70 °F64%29.92 "Hg
* Reported Jul 20 8:00 AM — Aug 4 8:00 AM, Enns, Weather by CustomWeather, © 2015

Note: Actual official high and low records may vary slightly from our data, if they occured in-between our weather recording intervals... More about our weather records

Advertising

Enns weather history for previous 24 hours

 ConditionsComfort  
Time TempWeatherWind HumidityBarometerVisibility
8:00 AM
Tue, Aug 4
67 °FSunny.No wind79%29.98 "Hg13 mi
7:00 AM60 °FSunny.N/A90%30.00 "Hg10 mi
5:00 AM60 °FClear.N/A93%30.01 "Hg25 mi
4:00 AM61 °FClear.N/A86%30.01 "Hg28 mi
3:00 AMN/APassing clouds.10 mphN/AN/A7 mi
2:00 AM63 °FMild.N/A83%30.02 "Hg28 mi
1:00 AM64 °FMild.N/A81%30.03 "Hg31 mi
12:00 AM66 °FMild.N/A79%30.04 "Hg31 mi
11:00 PM
Mon, Aug 3
70 °FClear.N/A67%30.02 "Hg31 mi
10:00 PM72 °FClear.N/A63%30.02 "Hg25 mi
9:00 PM76 °FClear.N/A51%30.01 "Hg28 mi
8:00 PM80 °FPassing clouds.N/A42%30.00 "Hg25 mi
7:00 PM82 °FPassing clouds.N/A38%30.00 "Hg28 mi
6:00 PM82 °FPassing clouds.N/A39%30.01 "Hg25 mi
5:00 PM82 °FPassing clouds.N/A40%30.03 "Hg22 mi
4:00 PM82 °FPassing clouds.N/A39%30.04 "Hg25 mi
3:00 PM79 °FPassing clouds.N/A45%30.06 "Hg15 mi
2:00 PM76 °FPassing clouds.N/A49%30.07 "Hg15 mi
1:00 PM75 °FPassing clouds.N/A52%30.09 "Hg22 mi
12:00 PM72 °FPassing clouds.N/A65%30.10 "Hg17 mi
11:00 AM67 °FPassing clouds.N/A75%30.12 "Hg9 mi
10:00 AM64 °FScattered clouds.N/A83%30.12 "Hg6 mi
9:00 AM62 °FLow clouds.N/A87%30.13 "Hg5 mi
Weather by CustomWeather, © 2015

See weather overviewHow to use our weather pages